Regional Weather Roundup
Issued by NWS

Home | Current Version | Previous Version | Graphics & Text | Print | Product List | Glossary On
Versions: 1 2 3 4 5 6 7 8 9 10 11 12 13 14 15 16 17 18 19 20 21 22 23 24 25 26 27 28 29 30 31 32 33 34 35 36 37 38 39 40 41 42 43 44 45 46 47 48 49 50
000
ASUS45 KBOI 281610
RWRID

IDAHO REGIONAL WEATHER ROUNDUP
NATIONAL WEATHER SERVICE BOISE ID
1000 AM MDT TUE JUL 28 2015

NOTE: "FAIR" INDICATES FEW OR NO CLOUDS BELOW 12000 FEET
WITH NO SIGNIFICANT WEATHER AND/OR OBSTRUCTIONS TO VISIBILITY

IDZ012-014-281700-
SOUTHWEST IDAHO


CITY           SKY/WX    TMP DP  RH WIND       PRES   REMARKS
BOISE          SUNNY     63  38  39 W5        30.27R
CALDWELL       SUNNY     61  36  39 CALM      30.29R
MOUNTAIN HOME  SUNNY     61  36  38 E5        30.28R
$$

IDZ016-017-281700-
SOUTHCENTRAL IDAHO


CITY           SKY/WX    TMP DP  RH WIND       PRES   REMARKS
BURLEY         SUNNY     58  36  43 CALM      30.31R
JEROME         SUNNY     57  36  45 CALM      30.31R
TWIN FALLS     SUNNY     64  34  32 NW7       30.28R
$$

IDZ019>023-281700-
SOUTHEAST IDAHO


CITY           SKY/WX    TMP DP  RH WIND       PRES   REMARKS
IDAHO FALLS    MOSUNNY   55  43  63 N3        30.33R
POCATELLO      MOSUNNY   57  41  55 CALM      30.34R
REXBURG        SUNNY     53  41  63 CALM      30.34R
$$

IDZ006-010-011-018-031-032-281700-
CENTRAL IDAHO MOUNTAINS


CITY           SKY/WX    TMP DP  RH WIND       PRES   REMARKS
MCCALL         SUNNY     53  38  56 VRB5      30.32R
HAILEY         SUNNY     55  36  47 NW12      30.35R
STANLEY          N/A     40  36  86 CALM      30.42
SALMON         CLOUDY    52  41  66 NW3       30.33R
CHALLIS        SUNNY     51  40  65 VRB3      30.36R
$$

IDZ002-004-006-007-026-281700-
NORTHERN IDAHO


CITY           SKY/WX    TMP DP  RH WIND       PRES   REMARKS
LEWISTON       SUNNY     65  47  52 NE3       30.25R
LOWELL           N/A     56  48  74 CALM      30.31S
COEUR D`ALENE  SUNNY     61  46  59 SE10      30.23S
MULLAN PASS    SUNNY     47  40  76 CALM      30.30R
$$



USA.gov is the U.S. government's official web portal to all federal, state and local government web resources and services.